Regional Weather Roundup
Issued by NWS Grand Forks, ND

Home | Current Version | Previous Version | Graphics & Text | Print | Product List | Glossary On
Versions: 1 2 3 4 5 6 7 8 9 10 11 12 13 14 15 16 17 18 19 20 21 22 23 24 25 26 27 28 29 30 31 32 33 34 35 36 37 38 39 40 41 42 43 44 45 46 47 48 49 50
005
ASUS43 KFGF 011310
RWRFGF
PRAIRIE TO PINES  WEATHER ROUNDUP
NATIONAL WEATHER SERVICE EASTERN NORTH DAKOTA/GRAND FORKS ND
800 AM CDT SAT OCT 01 2016

 **SATELLITE DATA USED TO AUGMENT SKY COVER AT AUTOMATED STATIONS**
 *****  WEATHER ACROSS EASTERN NORTH DAKOTA  *****

CITY           SKY/WX    TMP DP  RH WIND       PRES   REMARKS
GRAND FORKS    CLOUDY    51  47  86 SE7       30.16R
GRAND FRKS AFB PTCLDY    50  49  94 SE7       30.14S
GRAND FRKS NWS   N/A     48 N/A N/A S3          N/A
DEVILS LAKE    MOCLDY    56  49  77 SE13      30.10S
FARGO          PTCLDY    55  49  80 SE10      30.15S
WAHPETON ARPT  PTSUNNY   50  46  87 SE8       30.17S
$$

 ***** WEATHER ACROSS CENTRAL AND WESTERN NORTH DAKOTA  *****

CITY           SKY/WX    TMP DP  RH WIND       PRES   REMARKS
BISMARCK       CLEAR     52  45  77 E7        30.02S
MINOT          CLEAR     45  43  93 N5        30.01S
JAMESTOWN      CLOUDY    51  47  86 SE10      30.09S
MINOT AFB      CLEAR     46  45  94 E2        30.01S
GARRISON         N/A     49  46  90 SE7       30.00S
WILLISTON      CLEAR     46  44  93 N5        29.98S
DICKINSON      CLEAR     45  42  89 S6        29.97F
HETTINGER      CLEAR     43  41  93 CALM      30.00S
$$

 *****  OTHER AIRPORT OBSERVATIONS IN OUR AREA  *****

CITY           SKY/WX    TMP DP  RH WIND       PRES   REMARKS
WALHALLA       FAIR      48  48 100 SE7       30.14S
GRAFTON AIRPOR FAIR      50  50 100 SE7       30.17S
VALLEY CITY AR FAIR      50  50 100 S9        30.14F
CANDO          FAIR      50  50 100 SE9       30.11S
CAVALIER APRT  FAIR      50  48  93 SE3       30.14S
GWINNER        FAIR      48  48 100 SE9       30.14S
SHEYENNE NWR     N/A     47  45  94 E3        29.95S
ROLLA            N/A     48  46  93 SE5       30.09S
 ***** THE ABOVE OBSERVATIONS ARE NON NWS ARE NOT QUALITY
       CONTROLLED AND MAY MIS-REPORT RAIN FOR SNOW...
$$

  *****  WEATHER ACROSS NORTHERN MINNESOTA  *****

CITY           SKY/WX    TMP DP  RH WIND       PRES   REMARKS
FLAG ISLAND    CLOUDY    54  48  82 SE10      30.20S
WARROAD        CLOUDY    48  45  87 E3        30.21S
ROSEAU         PTCLDY    52  46  82 SE3       30.20S
HALLOCK        MOCLDY    54  50  87 SE7       30.16S
THF RVR FALLS  MOCLDY    47  45  93 SE8       30.19S
BAUDETTE       MOCLDY    47  45  93 MISG      30.22S
WASKISH        FOG       45  43  93 CALM      30.22S VSB<1/4
CROOKSTON      CLOUDY    50  48  93 SE7       30.17S
GREENBUSH NDAW   N/A     50  48  93 SE3         N/A
$$
  *****  WEATHER ACROSS CENTRAL AND WEST MINNESOTA  *****

CITY           SKY/WX    TMP DP  RH WIND       PRES   REMARKS
FOSSTON        PTCLDY    45  43  93 E3        30.20S
BEMIDJI        FOG       49  49 100 SE7       30.21F VSB<1/4
PARK RAPIDS    FOG       51  49  92 CALM      30.21S VSB 1/4
ELBOW LAKE     FOG       49  49 100 SE8       30.18S VSB 1/4
WADENA         FOG       50  48  93 SE5       30.20S VSB<1/4
DETROIT LAKES  FOG       46  46 100 SE6       30.20S VSB 1/2
MOORHEAD       PTCLDY    52  48  87 SE5       30.17R FOG
FERGUS FALLS   PTCLDY    50  50 100 E6        30.20S
MORRIS MN      FOG       48  48 100 E8        30.17S VSB<1/4
STAPLES        CLOUDY    50  50 100 CALM      30.21S FOG
$$
  *****  WEATHER ELSEWHERE ACROSS MINNESOTA  *****

CITY           SKY/WX    TMP DP  RH WIND       PRES   REMARKS
DULUTH         PTCLDY    51  49  92 E3        30.23S
INTRNTL FALLS  CLOUDY    43  43 100 SE5       30.24S
ELY            CLOUDY    48  46  93 CALM      30.25S
CLOQUET        FOG       52  48  87 NE3       30.23S VSB 3/4
WHEATON        NOT AVBL
BRAINERD       FOG       48  48 100 E5        30.22S VSB 1/4
HIBBING        FOG       40  40 100 CALM      30.24S VSB<1/4
ALEXANDRIA     FOG       50  50 100 E8        30.20S VSB<1/4
SAINT CLOUD    CLOUDY    51  51 100 NE6       30.21R
MINNEAPOLIS    CLEAR     53  50  89 NE6       30.18S
$$

  *****  WEATHER ACROSS SOUTH DAKOTA  *****

CITY           SKY/WX    TMP DP  RH WIND       PRES   REMARKS
SIOUX FALLS    CLOUDY    53  50  89 CALM      30.17R
BROOKINGS      CLEAR     44  43  96 CALM      30.16S
WATERTOWN      CLEAR     50  47  89 SE3       30.16R
HURON          MOCLDY    48  47  96 SE10      30.11F
SISSETON         N/A     47  45  93 S7        30.15F
ABERDEEN       CLOUDY    51  47  86 SE12      30.10S
MITCHELL       CLOUDY    46  44  93 SE7       30.14R
PIERRE         CLOUDY    58  45  62 SE12      30.02R
MOBRIDGE       MOCLDY    61  46  57 S16       29.99S
RAPID CITY     CLEAR     46  43  89 N3        30.00S
$$

  *****  SOME WEATHER IN NEARBY STATES *****

CITY           SKY/WX    TMP DP  RH WIND       PRES   REMARKS
GLASGOW MT     CLEAR     48  46  93 S9        29.94F
GREAT FALLS MT CLOUDY    64  42  44 S15       29.87F
CHEYENNE WY    CLEAR     50  40  68 W10       30.18R
SCOTTSBLUFF NE CLEAR     47  43  86 CALM      30.08R
OMAHA NE       CLOUDY    59  54  83 N3        30.15S
DES MOINES IA  CLOUDY    60  58  92 N3        30.12R
DAVENPORT IA   CLOUDY    59  58  96 N5        30.06S FOG
CHICAGO IL     CLOUDY    60  56  86 N8        30.01S
EAU CLAIRE WI  MOCLDY    52  51  97 CALM      30.17R
LA CROSSE WI   CLOUDY    61  56  83 N3        30.13R
$$

  *****  SOME NATIONAL WEATHER *****

CITY           SKY/WX    TMP DP  RH WIND       PRES   REMARKS
LA GUARDIA NY  DRIZZLE   59  56  89 NE10      30.22S FOG
RALEIGH NC     FOG       66  65  96 CALM      30.08R VSB 1/2
ATLANTA GA     SUNNY     63  53  70 W3        30.10R
NEW ORLEANS LA MOSUNNY   72  63  73 CALM      30.08R
OKLAHOMA CITY  MOCLDY    59  55  87 CALM      30.12R
ALBUQUERQUE NM MOCLDY    57  55  93 S5        30.22R
SALT LAKE CITY PTCLDY    61  49  64 SE12      30.05S
LOS ANGELES CA CLEAR     66  60  81 CALM      29.97S
BOISE ID       CLOUDY    63  47  55 S6        29.93R
SEATTLE WA     CLOUDY    52  46  80 SE7       29.94S
$$

*** WEATHER ACROSS MANITOBA...SASKATCHEWAN AND ONTARIO ***
                ***ONTARIO***

CITY           SKY/WX    TMP DP  RH WIND       PRES   REMARKS
GERALDTON      FOG       41  41 100 CALM      30.31S VSB 1
THUNDER BAY    MOCLDY    46  46 100 W2        30.27S
SIOUX LOOKOUT  MOCLDY    45  45 100 SE3       30.28S
TORONTO        LGT RAIN  55  54  94 E7        30.17F
BIG TROUT LK   PTCLDY    52  48  87 SW6       30.21F
PICKLE LAKE    MOCLDY    48  46  93 S7        30.28F
DRYDEN         CLOUDY    48  46  93 E5        30.26S
KENORA         MOCLDY    52  48  87 SE7       30.23S
$$
                *** MANITOBA***

CITY           SKY/WX    TMP DP  RH WIND       PRES   REMARKS
BRANDON        MOCLDY    52  48  87 NE6       30.08S
DAUPHIN        CLEAR     52  52 100 E6        30.07R
ISLAND LAKE    PTCLDY    52  48  87 SE7       30.15F
PILOT MOUND      N/A     52  46  82 SE10        N/A
THE PAS        FOG       52  50  93 N7        30.04S VSB 1/4
THOMPSON       PTCLDY    48  48 100 N8        30.13R FOG
WINNIPEG       MOCLDY    54  50  87 SE10      30.15S
LYNN LAKE      LGT RAIN  41  39  93 NE13G20   30.20R
CHURCHILL      LGT RAIN  39  37  93 E10       30.38S
GILLAM         FOG       45  45 100 NE6       30.18R VSB 1/4
$$
                ***SASKATCHEWAN***

CITY           SKY/WX    TMP DP  RH WIND       PRES   REMARKS
ESTEVAN        PTCLDY    45  43  93 E7        30.00S
KINDERSLEY     FOG       48  46  93 NE10      30.00S VSB 1/8
LLOYDMINSTER   DRIZZLE   46  45  93 NE12G18   30.06S
PRINCE ALBERT  CLOUDY    50  48  93 NE12      30.07S
REGINA         PTCLDY    48  46  93 SE9       30.00R
YORKTON        CLEAR     45  43  93 N2        30.04R
N. BATTLEFORD  CLOUDY    52  52 100 E14       30.05R
LA RONGE       CLOUDY    48  46  93 NE17      30.15S
SASKATOON      DRZL/FOG  50  50 100 NE15      30.05S VSB 1/2
SWIFT CURRENT  FOG       46  46 100 E8        29.97S VSB 5/8
$$
NOTE: THESE ARE AUTOMATED STATIONS WITH LIMITED QUALITY CONTROL
      "FAIR" INDICATES FEW OR NO CLOUDS BELOW 12,000 FEET WITH NO
      SIGNIFICANT WEATHER AND/OR OBSTRUCTIONS TO VISIBILITY.
      SKY/WX - SKY CONDITION AND SIGNIFICANT WEATHER.
      TMP - AIR TEMPERATURE.    DP   - DEWPOINT TEMPERATURE.
      RH  - RELATIVE HUMIDITY.  PRES - PRESSURE.
      HX  - HEAT INDEX.         WCI  - WIND CHILL INDEX.
$




USA.gov is the U.S. government's official web portal to all federal, state and local government web resources and services.